Location: *
(37.5724°S, 58.0067°E)
Time: 11:57:42
(UTC+00:00)

USA 229 DEB - Pass Details

Date: 28 November 2021
Orbit: 943 x 1269 km, 63.4° (Epoch: 14 January)

Event Time Altitude Azimuth Distance (km) Brightness Sun altitude
Exits shadow 16:02:56 10° 69° (ENE) 3,242 5.6 -9.5°
Reaches altitude 10° 16:03:32 10° 74° (ENE) 3,219 5.6 -9.6°
Maximum altitude 16:03:59 10° 77° (ENE) 3,212 5.6 -9.7°
Drops below altitude 10° 16:04:26 10° 81° (E) 3,213 5.7 -9.7°
Sets 16:11:07 0° 122° (ESE) 4,110 6.6 -10.8°
